User: anonymous   Login
Location: Unspecified
(0.0000°N, 0.0000°E)
Time: 04:56:27
(UTC+00:00)
Language:

CUTE 1.7 + AOD 2 - Orbit

View from above orbital plane
View from above orbital plane
View from above satellite
View from above satellite

Ground track
Ground track

The orbit data is extracted from the following two-line orbital elements,

1 32785U 08021C   15186.07999319  .00001044  00000-0  12244-3 0  9999
2 32785 097.6477 228.9830 0013683 014.5990 042.5219 14.86929490388899
Epoch (UTC): 05 July 2015 01:55:11
Eccentricity: 0.0013683
inclination: 97.6477°
perigee height: 598 km
apogee height: 617 km
right ascension of ascending node: 228.9830°
argument of perigee: 14.5990°
revolutions per day: 14.86929490
mean anomaly at epoch: 42.5219°
orbit number at epoch: 38889

The dashed part of the orbit path shows where the satellite is in the earth's shadow,  

DLR